Miscellaneous Local Product
Issued by NWS Hastings, NE

Home | Current Version | Previous Version | Graphics & Text | Print | Product List | Glossary On
Versions: 1 2 3 4 5 6 7 8 9 10 11 12 13 14 15 16 17 18 19 20 21 22 23 24 25 26 27 28 29 30 31 32 33 34 35 36 37 38 39 40 41 42 43 44 45 46 47 48 49 50
000
AXUS43 KGID 060802
MISGRI

GID CWA HOURLY WEATHER ROUNDUP
NATIONAL WEATHER SERVICE HASTINGS NE
300 AM CDT WED MAY 06 2015

NOTE: "FAIR" INDICATES FEW OR NO CLOUDS BELOW 12,000 FEET WITH NO
SIGNIFICANT WEATHER AND/OR OBSTRUCTIONS TO VISIBILITY.

...SOUTH CENTRAL NEBRASKA...

CITY           SKY/WX    TMP DP  RH WIND       PRES   REMARKS
GRAND ISLAND   CLOUDY    61  57  87 SE14G25   29.85F
HASTINGS       CLOUDY    61  58  90 SE15      29.84F
KEARNEY        CLOUDY    61  57  88 SE16G24   29.82F
ORD            CLOUDY    59  56  89 SE13      29.82F
YORK           MOCLDY    63  61  94 SE14G20   29.88F
AURORA         CLOUDY    61  61 100 SE12      29.86F
LEXINGTON      CLOUDY    60  58  94 SE17G23   29.79F
HOLDREGE       CLOUDY    59  58  94 SE17G25   29.81F
HEBRON         CLOUDY    65  58  80 SE16G23   29.87F

...NEBRASKA PANHANDLE...

CITY           SKY/WX    TMP DP  RH WIND       PRES   REMARKS
CHADRON        LGT RAIN  54  51  90 SE5       29.75F
ALLIANCE       LGT RAIN  52  52 100 SE10      29.73
SCOTTSBLUFF    LGT RAIN  52  32  46 E9        29.73F
SIDNEY         FOG       53  52  96 E15       29.71F VSB 1

...WESTERN AND NORTH CENTRAL NEBRASKA...

CITY           SKY/WX    TMP DP  RH WIND       PRES   REMARKS
VALENTINE      CLOUDY    57  54  89 SE15      29.79F
AINSWORTH      LGT RAIN  57  56  97 SE15      29.80F
ONEILL         CLOUDY    61  58  89 SE13      29.85F
BROKEN BOW     CLOUDY    59  57  93 SE16      29.80F
IMPERIAL       CLOUDY    54  52  93 SE14      29.73F
NORTH PLATTE   CLOUDY    59  56  89 SE9       29.76F
MCCOOK         CLOUDY    60  57  89 SE16G24   29.73F

...EASTERN NEBRASKA...

CITY           SKY/WX    TMP DP  RH WIND       PRES   REMARKS
NORFOLK        CLOUDY    62  60  93 SE10      29.89F
SO SIOUX CITY  CLOUDY    66  57  72 SE13      29.93F
TEKAMAH        CLOUDY    66  59  78 S17       29.93F
COLUMBUS       CLOUDY    63  55  77 SE12      29.91F
ALBION         CLOUDY    60  58  93 SE13      29.87F
OMAHA EPPLEY   LGT RAIN  65  62  90 S20       29.94F
OFFUTT AFB     CLOUDY    63  62  94 SE8       29.93F
MILLARD        DRIZZLE   66  61  85 SE12G18   29.94F
LINCOLN        CLOUDY    65  60  84 SE17      29.91F
NEBRASKA CITY  CLOUDY    63  62  98 S10       29.94F
BEATRICE       CLOUDY    64  60  88 SE12      29.91F
FALLS CITY     CLOUDY    62  62 100 E7        29.92F

...NORTHERN KANSAS...

CITY           SKY/WX    TMP DP  RH WIND       PRES   REMARKS
GOODLAND       CLOUDY    52  51  97 SE9       29.74F
HILL CITY      CLOUDY    61  59  93 SE12      29.77F
NORTON         CLOUDY    59  55  88 SE14G20   29.75F
PHILLIPSBURG   HVY RAIN  63  63 100 SE8G16    29.79F
SMITH CENTER   CLOUDY    61  57  88 SE17      29.82F
HAYS           CLOUDY    61  55  82 SE15G23   29.78F
RUSSELL        CLOUDY    62  60  93 SE16      29.78F
CONCORDIA      CLOUDY    63  59  87 SE18G28   29.84F
SALINA         RAIN      63  59  87 SE18      29.83F
TOPEKA         LGT RAIN  65  62  90 SE8       29.93F



USA.gov is the U.S. government's official web portal to all federal, state and local government web resources and services.